This demonstration page uses our WeatherBlox Daily Observations layout. Learn more.

Left ArrowRight Arrow

39.01783, -85.05884

Hourly Observations for May 15, 2015

Temp ( °F °C ) Dew Point ( °F °C ) Humidity (%) Winds ( mph kmh ) Pressure ( in mb ) Visibility ( mi km ) Precip ( " mm )
12:52 am 00:52 Mostly Cloudy 62 16.7 49 9.4 62 62 SSE 7 11 30.15 1021 10 16 0.00 0.00
1:52 am 01:52 Partly Cloudy 61 16.1 49 9.4 65 65 SSE 5 7 30.14 1021 10 16 0.00 0.00
2:52 am 02:52 Mostly Clear 59 15 49 9.4 69 69 SSE 5 7 30.11 1020 10 16 0.00 0.00
3:52 am 03:52 Partly Cloudy 58 14.4 50 10 75 75 S 7 11 30.10 1019 10 16 0.00 0.00
4:52 am 04:52 Cloudy 60 15.6 52 11.1 75 75 S 5 7 30.10 1019 10 16 0.00 0.00
5:52 am 05:52 Mostly Cloudy 61 16.1 53 11.7 75 75 S 5 7 30.10 1019 10 16 0.00 0.00
6:52 am 06:52 Mostly Cloudy 63 17.2 54 12.2 73 73 S 7 11 30.10 1019 10 16 0.00 0.00
7:52 am 07:52 Mostly Cloudy 65 18.3 56 13.3 73 73 S 7 11 30.11 1020 10 16 0.00 0.00
8:52 am 08:52 Cloudy 70 21.1 57 13.9 64 64 SSW 12 19 30.12 1020 10 16 0.00 0.00
9:52 am 09:52 Cloudy 72 22.2 60 15.6 66 66 SW 14 22 30.11 1020 10 16 0.00 0.00
10:52 am 10:52 Cloudy 75 23.9 61 16.1 62 62 SW 15 24 30.11 1020 10 16 0.00 0.00
11:52 am 11:52 Cloudy 79 26.1 62 16.7 56 56 SW 12 19 30.12 1020 10 16 0.00 0.00
12:52 pm 12:52 Mostly Cloudy 81 27.2 62 16.7 53 53 WSW 9 15 30.12 1020 7 11 0.00 0.00
1:52 pm 13:52 Mostly Cloudy 80 26.7 61 16.1 52 52 SW 9 15 30.10 1019 9 14 0.00 0.00
2:52 pm 14:52 Mostly Cloudy 81 27.2 62 16.7 53 53 WSW 10 17 30.08 1019 10 16 0.00 0.00
3:21 pm 15:21 Mostly Cloudy with Thunderstorms 79 26 63 17 58 58 NW 17 28 30.06 1018 9 14 0.00 0.03
3:30 pm 15:30 Mostly Cloudy with Strong Thunderstorms 68 20 63 17 83 83 NNE 13 20 30.09 1019 2 3 0.19 4.83
3:45 pm 15:45 Mostly Cloudy 73 23 61 16 65 65 NE 5 7 30.06 1018 7 11 0.35 8.89
3:52 pm 15:52 Partly Cloudy 76 24.4 64 17.8 67 67 Calm 30.07 1018 10 16 0.35 8.89
4:52 pm 16:52 Partly Cloudy 78 25.6 67 19.4 69 69 S 5 7 30.04 1017 10 16 0.00 0.03
5:52 pm 17:52 Mostly Cloudy 78 25.6 67 19.4 69 69 SW 3 6 30.03 1017 9 14 0.00 0.00
6:09 pm 18:09 Mostly Cloudy with Thunderstorms 77 25 66 19 69 69 SW 6 9 30.03 1017 9 14 0.00 0.03
6:41 pm 18:41 Partly Cloudy 73 23 63 17 69 69 WSW 6 9 30.03 1017 10 16 0.00 0.03
6:52 pm 18:52 Mostly Cloudy 74 23.3 63 17.2 69 69 Calm 30.03 1017 10 16 0.00 0.03
7:52 pm 19:52 Cloudy 73 22.8 65 18.3 76 76 S 3 6 30.03 1017 10 16 0.00 0.00
8:52 pm 20:52 Cloudy 69 20.6 64 17.8 84 84 S 7 11 30.04 1017 10 16 0.00 0.00
9:52 pm 21:52 Cloudy 69 20.6 64 17.8 84 84 S 5 7 30.04 1017 10 16 0.00 0.00
10:52 pm 22:52 Cloudy 72 22.2 64 17.8 76 76 SSW 7 11 30.07 1018 10 16 0.00 0.00
11:52 pm 23:52 Cloudy 72 22.2 64 17.8 76 76 SSW 8 13 30.08 1019 10 16 0.00 0.00

Powered by AerisWeather